Location: Peach Mountain Observatory
(42.3967°N, 83.9367°W)
Time: 06:22:01
(UTC-04:00)

deb Explorer IX - Pass Details

Date: 25 January 2020
Orbit: 547 x 1100 km, 38.8° (Epoch: 06 April)

Event Time Altitude Azimuth Distance (km) Brightness Sun altitude
Rises 22:54:03 0° 247° (WSW) 3,756 - -56.3°
Reaches altitude 10° 22:56:42 10° 243° (WSW) 2,858 - -56.7°
Maximum altitude 23:03:39 58° 167° (SSE) 1,255 - -57.7°
Drops below altitude 10° 23:10:47 10° 90° (E) 2,939 - -58.7°
Sets 23:13:33 0° 87° (E) 3,869 - -59.1°
